Weather History for Wooster, OH

Change the Weather History Date:

Thursday, January 2, 2014

  Actual Average Record
Temperature  
Mean Temperature 16 °F -  
Max Temperature 21 °F 33 °F 60 °F (2000)
Min Temperature 10 °F 21 °F 1 °F (2001)
Degree Days  
Heating Degree Days 50    
Moisture  
Dew Point 13 °F    
Average Humidity 84    
Maximum Humidity 93    
Minimum Humidity 73    
Precipitation  
Precipitation 0.00 in - - ()
Sea Level Pressure  
Sea Level Pressure 29.92 in    
Wind  
Wind Speed 12 mph (NNE)    
Max Wind Speed 23 mph    
Max Gust Speed 32 mph    
Visibility 2 miles    
Events Fog , Snow    
Averages and records for this station are not official NWS values.
T = Trace of Precipitation, MM = Missing Value Source: NWS Daily Summary

Daily Weather History Graph

Daily Weather History Graph

Search for Another Location

Airport:

Trip Planner

Search our weather history database for the weather conditions in past years. The results will help you decide how hot, cold, wet, or windy it might be!

Date:

Astronomy

Jan. 02, 2014 Rise Set
Actual Time 7:52 AM EST 5:11 PM EST
Civil Twilight 7:21 AM EST 5:42 PM EST
Nautical Twilight 6:46 AM EST 6:16 PM EST
Astronomical Twilight 6:13 AM EST 6:49 PM EST
Moon 8:31 AM EST (1/2) 7:07 PM EST (1/2)
Length of Visible Light 10h 20m
Length of Day
9h 19m
New Moon, 2% of the Moon is Illuminated
Jan 2
New Moon
Jan 7
First Quarter
Jan 15
Full
Jan 24
Last Quarter
Jan 30
New

Hourly Weather History & Observations

Time (EST) Temp. Windchill Dew Point Humidity Pressure Visibility Wind Dir Wind Speed Gust Speed Precip Events Conditions
12:56 AM 21.0 °F 12.4 °F 17.1 °F 85% 30.10 in 8.0 mi NE 6.9 mph - N/A   Overcast
1:56 AM 21.0 °F 11.4 °F 17.1 °F 85% 30.09 in 8.0 mi NNE 8.1 mph - N/A   Overcast
2:56 AM 19.9 °F 11.1 °F 17.1 °F 89% 30.08 in 8.0 mi NE 6.9 mph - N/A   Overcast
3:56 AM 19.9 °F 7.3 °F 16.0 °F 85% 30.05 in 5.0 mi NE 12.7 mph - 0.00 in Snow Light Snow
4:43 AM 19.4 °F 9.5 °F 15.8 °F 86% 29.99 in 9.0 mi NE 8.1 mph - 0.00 in   Overcast
4:56 AM 19.9 °F 10.1 °F 17.1 °F 89% 30.04 in 9.0 mi ENE 8.1 mph - 0.00 in   Overcast
5:27 AM 19.4 °F 9.5 °F 15.8 °F 86% 29.97 in 5.0 mi NE 8.1 mph - 0.00 in Snow Light Snow
5:56 AM 19.9 °F 9.3 °F 17.1 °F 89% 30.01 in 3.0 mi ENE 9.2 mph - 0.00 in Snow Light Snow
6:04 AM 19.4 °F 10.4 °F 17.6 °F 93% 29.96 in 2.0 mi ENE 6.9 mph - 0.00 in Snow Light Snow
6:27 AM 19.4 °F 7.9 °F 15.8 °F 86% 29.95 in 1.5 mi ENE 10.4 mph - 0.00 in Snow Light Snow
6:48 AM 19.4 °F 10.4 °F 17.6 °F 93% 29.93 in 2.0 mi ENE 6.9 mph - 0.00 in Snow Light Snow
6:56 AM 19.9 °F 11.1 °F 17.1 °F 89% 29.98 in 2.0 mi ENE 6.9 mph - 0.00 in Snow Light Snow
7:05 AM 19.4 °F 10.4 °F 17.6 °F 93% 29.92 in 1.5 mi ENE 6.9 mph - 0.00 in Snow Light Snow
7:56 AM 19.9 °F 11.1 °F 16.0 °F 85% 29.96 in 1.8 mi NE 6.9 mph - 0.00 in Snow Light Snow
8:15 AM 19.4 °F 11.5 °F 15.8 °F 86% 29.90 in 0.8 mi NE 5.8 mph - 0.00 in Snow Light Snow
8:35 AM 19.4 °F 10.4 °F 15.8 °F 86% 29.90 in 0.5 mi NE 6.9 mph - 0.00 in Fog , Snow Snow
8:56 AM 19.0 °F 9.0 °F 16.0 °F 88% 29.95 in 0.8 mi NE 8.1 mph - 0.00 in Snow Light Snow
9:06 AM 19.4 °F 8.6 °F 15.8 °F 86% 29.90 in 0.5 mi NNE 9.2 mph - 0.00 in Fog , Snow Snow
9:56 AM 19.0 °F 6.1 °F 15.1 °F 85% 29.94 in 0.5 mi NE 12.7 mph - 0.00 in Fog , Snow Snow
10:20 AM 19.4 °F 7.2 °F 15.8 °F 86% 29.87 in 0.8 mi NNE 11.5 mph - 0.00 in Snow Light Snow
10:34 AM 19.4 °F 6.6 °F 15.8 °F 86% 29.87 in 0.8 mi NNE 12.7 mph - 0.00 in Snow Light Snow
10:54 AM 19.4 °F 5.5 °F 15.8 °F 86% 29.86 in 1.0 mi NE 15.0 mph 18.4 mph 0.00 in Snow Light Snow
10:56 AM 19.0 °F 6.1 °F 15.1 °F 85% 29.91 in 1.0 mi NNE 12.7 mph 18.4 mph 0.00 in Snow Light Snow
11:05 AM 19.4 °F 7.9 °F 15.8 °F 86% 29.87 in 1.5 mi NNE 10.4 mph - 0.00 in Snow Light Snow
11:20 AM 19.4 °F 10.4 °F 15.8 °F 86% 29.87 in 1.0 mi NNE 6.9 mph - 0.00 in Snow Light Snow
11:37 AM 19.4 °F 6.6 °F 14.0 °F 80% 29.84 in 0.8 mi NNE 12.7 mph - 0.00 in Snow Light Snow
11:56 AM 19.9 °F 9.3 °F 15.1 °F 81% 29.88 in 0.8 mi North 9.2 mph - 0.00 in Snow Light Snow
12:19 PM 19.4 °F 9.5 °F 15.8 °F 86% 29.82 in 1.0 mi North 8.1 mph - 0.00 in Snow Light Snow
12:35 PM 21.2 °F 9.5 °F 15.8 °F 80% 29.81 in 1.2 mi North 11.5 mph - 0.00 in Snow Light Snow
12:48 PM 21.2 °F 9.5 °F 15.8 °F 80% 29.80 in 1.0 mi North 11.5 mph - 0.00 in Snow Light Snow
12:56 PM 21.0 °F 10.6 °F 16.0 °F 81% 29.85 in 0.8 mi North 9.2 mph 18.4 mph 0.00 in Snow Light Snow
1:29 PM 21.2 °F 9.5 °F 15.8 °F 80% 29.79 in 1.0 mi NNE 11.5 mph - 0.00 in Snow Light Snow
1:53 PM 21.2 °F 8.3 °F 15.8 °F 80% 29.79 in 1.2 mi NNE 13.8 mph 21.9 mph 0.00 in Snow Light Snow
1:56 PM 21.0 °F 8.6 °F 16.0 °F 81% 29.84 in 1.0 mi NNE 12.7 mph 19.6 mph 0.00 in Snow Light Snow
2:13 PM 19.4 °F 6.0 °F 15.8 °F 86% 29.79 in 0.8 mi NNE 13.8 mph 27.6 mph 0.00 in Snow Light Snow
2:31 PM 19.4 °F 5.5 °F 15.8 °F 86% 29.79 in 1.0 mi NNE 15.0 mph - 0.00 in Snow Light Snow
2:39 PM 19.4 °F 6.0 °F 15.8 °F 86% 29.78 in 0.8 mi North 13.8 mph 21.9 mph 0.00 in Snow Light Snow
2:49 PM 19.4 °F 5.0 °F 15.8 °F 86% 29.78 in 1.0 mi NNE 16.1 mph 27.6 mph 0.00 in Snow Light Snow
2:56 PM 19.9 °F 6.7 °F 15.1 °F 81% 29.84 in 1.0 mi North 13.8 mph 24.2 mph 0.00 in Snow Light Snow
3:18 PM 19.4 °F 4.5 °F 15.8 °F 86% 29.80 in 1.2 mi North 17.3 mph 23.0 mph 0.00 in Snow Light Snow
3:31 PM 19.4 °F 4.1 °F 14.0 °F 80% 29.80 in 1.0 mi North 18.4 mph 25.3 mph 0.00 in Snow Light Snow
3:56 PM 18.0 °F 2.2 °F 12.9 °F 81% 29.87 in 1.2 mi North 18.4 mph 26.5 mph 0.00 in Snow Light Snow
4:25 PM 17.6 °F 2.2 °F 12.2 °F 79% 29.82 in 1.0 mi North 17.3 mph 28.8 mph 0.00 in Snow Light Snow
4:33 PM 17.6 °F 1.3 °F 12.2 °F 79% 29.83 in 0.8 mi North 19.6 mph 27.6 mph 0.00 in Snow Light Snow
4:56 PM 16.0 °F -1.3 °F 10.9 °F 81% 29.90 in 1.2 mi North 20.7 mph 28.8 mph 0.00 in Snow Light Snow
5:08 PM 15.8 °F 0.3 °F 10.4 °F 79% 29.86 in 2.0 mi North 16.1 mph 28.8 mph 0.00 in Snow Light Snow
5:15 PM 15.8 °F -1.9 °F 10.4 °F 79% 29.86 in 1.5 mi North 21.9 mph 29.9 mph 0.00 in Snow Light Snow
5:56 PM 15.1 °F -1.6 °F 10.0 °F 80% 29.94 in 2.5 mi North 18.4 mph 28.8 mph 0.00 in Snow Light Snow
6:03 PM 15.8 °F -1.5 °F 10.4 °F 79% 29.88 in 4.0 mi North 20.7 mph 27.6 mph 0.00 in Snow Light Snow
6:18 PM 15.8 °F -0.6 °F 8.6 °F 73% 29.89 in 4.0 mi North 18.4 mph 29.9 mph 0.00 in Snow Light Snow
6:37 PM 15.8 °F 2.7 °F 10.4 °F 79% 29.91 in 3.0 mi North 11.5 mph 19.6 mph 0.00 in Snow Light Snow
6:45 PM 15.8 °F 0.3 °F 10.4 °F 79% 29.91 in 2.0 mi North 16.1 mph 23.0 mph 0.00 in Snow Light Snow
6:56 PM 15.1 °F -2.5 °F 10.0 °F 80% 29.97 in 2.0 mi North 20.7 mph 28.8 mph 0.00 in Snow Light Snow
7:07 PM 15.8 °F -1.1 °F 8.6 °F 73% 29.93 in 3.0 mi North 19.6 mph 28.8 mph 0.00 in Snow Light Snow
7:17 PM 15.8 °F -1.5 °F 10.4 °F 79% 29.94 in 1.8 mi North 20.7 mph 28.8 mph 0.00 in Snow Light Snow
7:42 PM 14.0 °F -2.5 °F 10.4 °F 86% 29.95 in 1.2 mi North 17.3 mph 26.5 mph 0.00 in Snow Light Snow
7:56 PM 14.0 °F -1.4 °F 10.0 °F 84% 30.02 in 1.2 mi North 15.0 mph 25.3 mph 0.00 in Snow Light Snow
8:06 PM 14.0 °F -1.4 °F 10.4 °F 86% 29.96 in 0.8 mi NNW 15.0 mph - 0.00 in Snow Light Snow
8:27 PM 12.2 °F -5.3 °F 8.6 °F 85% 29.97 in 1.0 mi North 18.4 mph 25.3 mph 0.00 in Snow Light Snow
8:56 PM 12.9 °F -5.7 °F 8.1 °F 81% 30.05 in 1.0 mi North 21.9 mph 28.8 mph 0.00 in Snow Light Snow
9:20 PM 12.2 °F -5.8 °F 8.6 °F 85% 29.99 in 1.2 mi North 19.6 mph 28.8 mph 0.00 in Snow Light Snow
9:38 PM 12.2 °F -5.8 °F 6.8 °F 79% 30.00 in 2.0 mi NNW 19.6 mph 31.1 mph 0.00 in Snow Light Snow
9:53 PM 12.2 °F -7.1 °F 6.8 °F 79% 30.01 in 3.0 mi North 23.0 mph 28.8 mph 0.00 in Snow Light Snow
9:56 PM 10.9 °F -7.9 °F 6.1 °F 81% 30.07 in 2.5 mi North 20.7 mph 28.8 mph 0.00 in Snow Light Snow
10:03 PM 10.4 °F -8.2 °F 6.8 °F 85% 30.01 in 3.0 mi North 19.6 mph 27.6 mph 0.00 in Snow Light Snow
10:28 PM 10.4 °F -8.6 °F 6.8 °F 85% 30.03 in 2.5 mi NNW 20.7 mph - 0.00 in Snow Light Snow
10:47 PM 10.4 °F -7.7 °F 6.8 °F 85% 30.03 in 3.0 mi North 18.4 mph - 0.00 in Snow Light Snow
10:56 PM 10.9 °F -7.5 °F 6.1 °F 81% 30.10 in 4.0 mi North 19.6 mph 24.2 mph 0.00 in Snow Light Snow
11:56 PM 10.9 °F -8.8 °F 6.1 °F 81% 30.13 in 2.5 mi North 23.0 mph 32.2 mph 0.00 in Snow Light Snow